Flag for Italy Weather past 2 weeks in Cagliari, Italy

Now
66 °F

Scattered clouds.


Feels Like: 66 °F
Forecast: 56 / 71 °F
Wind: 21 mph from Northwest

Location: Cagliari / Elmas

Current Time: May 22, 2015 at 11:12:51 AM

Latest Report: May 22, 2015 at 10:50 AM


Visibility: N/A

Pressure: 29.98 "Hg

Humidity: 49%

Dew point: 46 °F

Location of CagliariLocation

Historic Weather in Cagliari — Graph

°F

Cagliari temperature yesterday

Maximum temperature yesterday: 68 °F (at 2:50 PM)
Minimum temperature yesterday: 54 °F (at 4:20 AM)
Average temperature yesterday: 61 °F

Past Weeks' High & Low Weather Summary

 TemperatureHumidityPressure
High91 °F (May 14, 4:20 PM)94% (May 10, 2:50 AM)30.27 "Hg (May 10, 2:50 AM)
Low50 °F (May 17, 6:50 AM)15% (May 14, 4:50 PM)29.71 "Hg (May 15, 5:50 AM)
Average68 °F62%30.02 "Hg
* Reported May 7 9:20 AM — May 22 9:50 AM, Cagliari, Weather by CustomWeather, © 2015

Note: Actual official high and low records may vary slightly from our data, if they occured in-between our weather recording intervals... More about our weather records

Advertising

Cagliari weather history for previous 24 hours

 ConditionsComfort  
Time TempWeatherWind HumidityBarometerVisibility
9:50 AM
Fri, May 22
63 °FScattered clouds.18 mph59%29.98 "HgN/A
9:20 AM61 °FLight rain. Scattered clouds.15 mph72%29.98 "HgN/A
8:50 AM63 °FPassing clouds.16 mph64%29.98 "HgN/A
8:20 AM61 °FPassing clouds.17 mph68%29.98 "HgN/A
7:50 AM61 °FPassing clouds.22 mph68%29.98 "HgN/A
7:20 AM59 °FPassing clouds.16 mph77%29.98 "HgN/A
6:50 AM54 °FPassing clouds.6 mph77%29.95 "HgN/A
6:20 AM54 °FPassing clouds.3 mph77%29.98 "HgN/A
5:50 AM55 °FPassing clouds.3 mph72%29.95 "HgN/A
5:20 AM55 °FPassing clouds.3 mph72%29.95 "HgN/A
4:50 AM55 °FClear.3 mph77%29.95 "Hg10 mi
4:20 AM57 °FPassing clouds.3 mph72%29.98 "HgN/A
3:50 AM55 °FPassing clouds.5 mph77%29.98 "HgN/A
3:20 AM57 °FPassing clouds.7 mph72%30.01 "HgN/A
2:50 AM59 °FPassing clouds.6 mph72%30.01 "HgN/A
2:20 AM59 °FPassing clouds.6 mph68%30.01 "HgN/A
1:50 AM57 °FPassing clouds.7 mph77%30.01 "HgN/A
1:20 AM59 °FPassing clouds.9 mph68%30.04 "HgN/A
12:50 AM59 °FPassing clouds.13 mph68%30.04 "HgN/A
12:20 AM57 °FLight rain. Passing clouds.15 mph72%30.04 "HgN/A
11:50 PM
Thu, May 21
61 °FPassing clouds.13 mph55%30.04 "HgN/A
10:50 PM57 °FPassing clouds.6 mph63%30.07 "HgN/A
10:20 PM57 °FPassing clouds.6 mph59%30.07 "HgN/A
9:50 PM57 °FPassing clouds.5 mph59%30.07 "HgN/A
9:20 PM59 °FSunny.14 mph55%30.04 "Hg10 mi
8:50 PM61 °FPassing clouds.15 mph52%30.04 "HgN/A
8:20 PM61 °FPassing clouds.15 mph52%30.04 "HgN/A
7:50 PM61 °FPassing clouds.18 mph45%30.04 "HgN/A
7:20 PM63 °FPassing clouds.21 mph45%30.04 "HgN/A
6:50 PM63 °FPassing clouds.21 mph45%30.04 "HgN/A
6:20 PM64 °FPassing clouds.20 mph46%30.04 "HgN/A
5:50 PM66 °FPassing clouds.17 mph40%30.04 "HgN/A
5:20 PM66 °FPassing clouds.20 mph40%30.04 "HgN/A
4:50 PM66 °FPassing clouds.21 mph40%30.04 "HgN/A
4:20 PM66 °FPassing clouds.21 mph43%30.04 "HgN/A
3:50 PM68 °FPassing clouds.21 mph40%30.04 "HgN/A
3:20 PM68 °FSunny.21 mph40%30.04 "Hg10 mi
2:50 PM68 °FPassing clouds.22 mph38%30.04 "HgN/A
2:20 PM66 °FPassing clouds.21 mph37%30.04 "HgN/A
1:50 PM66 °FSunny.21 mph43%30.04 "Hg10 mi
1:20 PM66 °FPassing clouds.23 mph43%30.04 "HgN/A
12:50 PM66 °FPassing clouds.22 mph43%30.07 "HgN/A
12:20 PM66 °FPassing clouds.20 mph46%30.07 "HgN/A
11:50 AM66 °FPassing clouds.20 mph43%30.07 "HgN/A
11:20 AM66 °FPassing clouds.20 mph46%30.07 "HgN/A
Weather by CustomWeather, © 2015

See weather overviewHow to use our weather pages